Weather History for Wright-Patt AFB, OH

Change the Weather History Date:

Thursday, August 8, 2013

  Actual Average Record
Temperature  
Mean Temperature 76 °F -  
Max Temperature 82 °F 81 °F 99 °F (2007)
Min Temperature 69 °F 61 °F 55 °F (2002)
Cooling Degree Days 10    
Growing Degree Days 26 (Base 50)    
Moisture  
Dew Point 72 °F    
Average Humidity 90    
Maximum Humidity 100    
Minimum Humidity 70    
Precipitation  
Precipitation 0.41 in - - ()
Sea Level Pressure  
Sea Level Pressure 29.94 in    
Wind  
Wind Speed 4 mph (South)    
Max Wind Speed 31 mph    
Max Gust Speed 41 mph    
Visibility 7 miles    
Events Rain , Thunderstorm    
Averages and records for this station are not official NWS values.
T = Trace of Precipitation, MM = Missing Value Source: NWS Daily Summary

Daily Weather History Graph

Daily Weather History Graph

Search for Another Location

Airport:

Trip Planner

Search our weather history database for the weather conditions in past years. The results will help you decide how hot, cold, wet, or windy it might be!

Date:

Astronomy

Aug. 08, 2013 Rise Set
Actual Time 6:41 AM EDT 8:41 PM EDT
Civil Twilight 6:12 AM EDT 9:10 PM EDT
Nautical Twilight 5:36 AM EDT 9:46 PM EDT
Astronomical Twilight 4:57 AM EDT 10:25 PM EDT
Moon 8:27 AM EDT (8/8) 9:19 PM EDT (8/8)
Length of Visible Light 14h 58m
Length of Day
13h 59m
Waxing Crescent, 3% of the Moon is Illuminated
Aug 8
Waxing Crescent
Aug 14
First Quarter
Aug 20
Full
Aug 28
Last Quarter
Sep 5
New

Hourly Weather History & Observations

Time (EDT) Temp. Heat Index Dew Point Humidity Pressure Visibility Wind Dir Wind Speed Gust Speed Precip Events Conditions
12:58 AM 76.1 °F - 72.3 °F 88% 29.93 in 10.0 mi Calm Calm - N/A   Scattered Clouds
1:58 AM 75.4 °F - 72.3 °F 90% 29.93 in 10.0 mi SSE 5.8 mph - N/A   Mostly Cloudy
2:58 AM 73.2 °F - 71.8 °F 95% 29.92 in 10.0 mi SSW 3.5 mph - N/A   Partly Cloudy
3:21 AM 73.4 °F - 71.6 °F 94% 29.94 in 10.0 mi South 5.8 mph - N/A Thunderstorm Scattered Clouds
3:28 AM 75.2 °F - 73.4 °F 94% 29.94 in 10.0 mi South 6.9 mph - N/A Thunderstorm Mostly Cloudy
3:41 AM 75.2 °F - 73.4 °F 94% 29.95 in 10.0 mi WSW 8.1 mph - N/A Rain , Thunderstorm Light Rain
3:51 AM 73.4 °F - 71.6 °F 94% 29.95 in 8.0 mi SW 6.9 mph - N/A Rain , Thunderstorm Light Thunderstorms and Rain
3:52 AM 73.4 °F - 71.6 °F 94% 29.95 in 7.0 mi SW 8.1 mph - N/A Rain , Thunderstorm Light Thunderstorms and Rain
3:54 AM 73.4 °F - 71.6 °F 94% 29.95 in 6.0 mi SW 9.2 mph - N/A Rain , Thunderstorm Light Thunderstorms and Rain
3:58 AM 73.4 °F - 71.6 °F 94% 29.93 in 6.0 mi WSW 8.1 mph - 0.02 in Rain , Thunderstorm Light Thunderstorms and Rain
4:08 AM 73.4 °F - 71.6 °F 94% 29.94 in 6.0 mi SW 3.5 mph - N/A Rain , Thunderstorm Light Thunderstorms and Rain
4:19 AM 71.6 °F - 69.8 °F 94% 29.94 in 4.0 mi WNW 3.5 mph - N/A Rain , Thunderstorm Light Rain
4:28 AM 71.6 °F - 69.8 °F 94% 29.93 in 10.0 mi Calm Calm - N/A Rain , Thunderstorm Light Rain
4:38 AM 71.6 °F - 69.8 °F 94% 29.93 in 10.0 mi Calm Calm - N/A   Mostly Cloudy
4:58 AM 71.6 °F - 70.3 °F 96% 29.92 in 10.0 mi SSE 2.3 mph - 0.08 in   Scattered Clouds
5:58 AM 70.9 °F - 70.3 °F 98% 29.92 in 8.0 mi South 2.3 mph - N/A   Clear
6:18 AM 69.8 °F - 69.8 °F 100% 29.93 in 5.0 mi South 3.5 mph - N/A   Partly Cloudy
6:28 AM 69.8 °F - 69.8 °F 100% 29.94 in 5.0 mi Calm Calm - N/A   Partly Cloudy
6:38 AM 69.8 °F - 69.8 °F 100% 29.93 in 3.0 mi Calm Calm - N/A   Mostly Cloudy
6:58 AM 69.6 °F - 69.6 °F 100% 29.92 in 4.0 mi SE 1.2 mph - N/A   Scattered Clouds
7:08 AM 71.6 °F - 71.6 °F 100% 29.93 in 4.0 mi Calm Calm - N/A   Mostly Cloudy
7:28 AM 71.6 °F - 71.6 °F 100% 29.94 in 1.5 mi Calm Calm - N/A   Mostly Cloudy
7:58 AM 72.7 °F - 72.5 °F 99% 29.93 in 4.0 mi South 3.5 mph - N/A   Overcast
8:18 AM 73.4 °F - 73.4 °F 100% 29.95 in 1.0 mi SSW 5.8 mph - N/A   Overcast
8:58 AM 73.8 °F - 73.2 °F 98% 29.94 in 1.0 mi South 4.6 mph - N/A   Overcast
9:08 AM 73.4 °F - 73.4 °F 100% 29.95 in 1.5 mi South 3.5 mph - N/A   Overcast
9:58 AM 74.8 °F - 73.4 °F 95% 29.95 in 3.0 mi SE 4.6 mph - N/A   Overcast
10:42 AM 75.2 °F - 73.4 °F 94% 29.97 in 4.0 mi ESE 4.6 mph - N/A   Overcast
10:53 AM 77.0 °F - 73.4 °F 89% 29.97 in 5.0 mi SE 4.6 mph - N/A   Overcast
10:58 AM 76.5 °F - 73.4 °F 90% 29.97 in 5.0 mi SE 4.6 mph - N/A   Overcast
11:09 AM 77.0 °F - 73.4 °F 89% 29.97 in 5.0 mi SE 3.5 mph - N/A   Overcast
11:10 AM 77.0 °F - 73.4 °F 89% 29.97 in 6.0 mi SE 3.5 mph - N/A   Overcast
11:30 AM 77.0 °F - 73.4 °F 89% 29.97 in 6.0 mi Variable 1.2 mph - N/A   Overcast
11:58 AM 77.7 °F - 74.3 °F 89% 29.96 in 6.0 mi Variable 2.3 mph - N/A   Mostly Cloudy
12:30 PM 78.8 °F - 73.4 °F 83% 29.95 in 10.0 mi Variable 1.2 mph - N/A   Mostly Cloudy
12:44 PM 78.8 °F - 71.6 °F 78% 29.95 in 10.0 mi SE 5.8 mph - N/A Rain Light Rain
12:54 PM 78.8 °F - 73.4 °F 83% 29.95 in 10.0 mi SE 5.8 mph - N/A   Mostly Cloudy
12:58 PM 78.8 °F - 73.8 °F 84% 29.95 in 10.0 mi ESE 6.9 mph - 0.01 in   Mostly Cloudy
1:08 PM 80.6 °F 85.4 °F 73.4 °F 79% 29.95 in 10.0 mi ESE 5.8 mph - N/A Thunderstorm Mostly Cloudy
1:32 PM 78.8 °F - 73.4 °F 83% 29.94 in 6.0 mi ESE 5.8 mph - N/A Rain , Thunderstorm Rain Showers
1:55 PM 77.0 °F - 73.4 °F 89% 29.94 in 10.0 mi East 2.3 mph - N/A Rain Light Rain
1:58 PM 77.0 °F - 73.9 °F 90% 29.94 in 10.0 mi Calm Calm - 0.29 in Rain Light Rain
2:01 PM 78.8 °F - 73.4 °F 83% 29.93 in 7.0 mi SE 2.3 mph - N/A   Mostly Cloudy
2:16 PM 78.8 °F - 73.4 °F 83% 29.92 in 7.0 mi NW 1.2 mph - N/A Rain Light Rain
2:28 PM 78.8 °F - 73.4 °F 83% 29.93 in 4.0 mi SSW 3.5 mph - N/A Rain , Thunderstorm Light Thunderstorms and Rain
2:38 PM 78.8 °F - 73.4 °F 83% 29.92 in 7.0 mi West 2.3 mph - N/A Thunderstorm Thunderstorm
2:58 PM 78.6 °F - 74.8 °F 88% 29.93 in 10.0 mi South 5.8 mph - 0.01 in Rain , Thunderstorm Light Thunderstorms and Rain
3:09 PM 78.8 °F - 73.4 °F 83% 29.92 in 10.0 mi South 9.2 mph - N/A Thunderstorm Thunderstorm
3:13 PM 78.8 °F - 73.4 °F 83% 29.93 in 10.0 mi SSE 8.1 mph - N/A Thunderstorm Scattered Clouds
3:25 PM 78.8 °F - 73.4 °F 83% 29.92 in 10.0 mi SE 5.8 mph - N/A   Scattered Clouds
3:58 PM 79.9 °F - 74.3 °F 83% 29.92 in 10.0 mi SSW 4.6 mph - 0.00 in   Mostly Cloudy
4:58 PM 82.0 °F 86.7 °F 71.6 °F 71% 29.90 in 10.0 mi Variable 2.3 mph - N/A   Mostly Cloudy
5:07 PM 82.4 °F 87.2 °F 71.6 °F 70% 29.90 in 10.0 mi South 3.5 mph - N/A Thunderstorm Mostly Cloudy
5:43 PM 80.6 °F 85.4 °F 73.4 °F 79% 29.92 in 10.0 mi SW 4.6 mph - N/A Thunderstorm Thunderstorm
5:51 PM 78.8 °F - 71.6 °F 78% 29.92 in 7.0 mi WSW 16.1 mph 21.9 mph N/A Rain , Thunderstorm Light Thunderstorms and Rain
5:56 PM 77.0 °F - 71.6 °F 83% 29.92 in 0.2 mi WNW 31.1 mph 41.4 mph N/A Rain , Thunderstorm Heavy Thunderstorms and Rain
6:00 PM 75.2 °F - 71.6 °F 89% 29.94 in 0.2 mi NW 24.2 mph 41.4 mph N/A Rain , Thunderstorm Heavy Thunderstorms and Rain
6:07 PM 71.6 °F - 68.0 °F 88% 29.94 in 0.8 mi NNW 12.7 mph 36.8 mph N/A Rain , Thunderstorm Heavy Thunderstorms and Rain
6:16 PM 71.6 °F - 68.0 °F 88% 29.93 in 3.0 mi NE 10.4 mph 19.6 mph N/A Rain , Thunderstorm Light Thunderstorms and Rain
6:19 PM 71.6 °F - 68.0 °F 88% 29.93 in 10.0 mi NNE 9.2 mph - N/A Rain , Thunderstorm Light Thunderstorms and Rain
6:42 PM 71.6 °F - 69.8 °F 94% 29.94 in 10.0 mi SE 5.8 mph - N/A Thunderstorm Mostly Cloudy
8:58 PM 72.3 °F - 71.4 °F 97% 29.93 in 10.0 mi NE 2.3 mph - N/A   Clear
9:58 PM 72.7 °F - 72.1 °F 98% 29.94 in 10.0 mi NW 2.3 mph - N/A   Mostly Cloudy
10:38 PM 71.6 °F - 71.6 °F 100% 29.95 in 10.0 mi Calm Calm - N/A   Scattered Clouds
11:08 PM 71.6 °F - 71.6 °F 100% 29.96 in 8.0 mi WSW 2.3 mph - N/A   Scattered Clouds
11:48 PM 71.6 °F - 71.6 °F 100% 29.95 in 9.0 mi Calm Calm - N/A   Clear